Dover AFB, DE

4:03 PM EST on January 18, 2017 (GMT -0500)
Dover Air Force Base

Weather History for KDOV - September, 2012

Change the Weather History Date:

Sunday, September 16, 2012

  Actual Average Record
Temperature  
Mean Temperature 65 °F -  
Max Temperature 75 °F 78 °F 127 °F (2004)
Min Temperature 55 °F 58 °F 44 °F (1984)
Growing Degree Days 15 (Base 50)    
Moisture  
Dew Point 52 °F    
Average Humidity 66    
Maximum Humidity 85    
Minimum Humidity 43    
Precipitation  
Precipitation 0.00 in - - ()
Sea Level Pressure  
Sea Level Pressure 30.11 in    
Wind  
Wind Speed 2 mph (WSW)    
Max Wind Speed 10 mph    
Max Gust Speed 18 mph    
Visibility 10 miles    
Events      
Averages and records for this station are not official NWS values.
T = Trace of Precipitation, MM = Missing Value Source: NWS Daily Summary

Daily Weather History Graph

Daily Weather History Graph

Search for Another Location

Airport or City:

Trip Planner

Search our weather history database for the weather conditions in past years. The results will help you decide how hot, cold, wet, or windy it might be!

Date:

Astronomy

Sep. 16, 2012 Rise Set
Actual Time 6:44 AM EDT 7:07 PM EDT
Civil Twilight 6:17 AM EDT 7:34 PM EDT
Nautical Twilight 5:46 AM EDT 8:06 PM EDT
Astronomical Twilight 5:13 AM EDT 8:38 PM EDT
Moon 7:20 AM EDT (9/16) 7:12 PM EDT (9/16)
Length of Visible Light 13h 16m
Length of Day
12h 23m
New Moon, 0% of the Moon is Illuminated
Sep 16
New Moon
Sep 22
First Quarter
Sep 29
Full
Oct 8
Last Quarter
Oct 15
New

Hourly Weather History & Observations

Time (EDT) Temp. Dew Point Humidity Pressure Visibility Wind Dir Wind Speed Gust Speed Precip Events Conditions
12:55 AM 59.4 °F 53.8 °F 82% 30.13 in 10.0 mi Calm Calm - N/A   Clear
1:55 AM 56.7 °F 50.9 °F 81% 30.13 in 10.0 mi Calm Calm - N/A   Clear
2:55 AM 57.2 °F 52.9 °F 85% 30.13 in 10.0 mi Calm Calm - N/A   Clear
3:55 AM 56.7 °F 50.4 °F 79% 30.12 in 10.0 mi Calm Calm - N/A   Mostly Cloudy
4:55 AM 57.7 °F 51.1 °F 78% 30.12 in 10.0 mi Calm Calm - N/A   Overcast
5:55 AM 55.8 °F 51.3 °F 85% 30.12 in 10.0 mi Calm Calm - N/A   Partly Cloudy
6:55 AM 55.9 °F 50.5 °F 82% 30.14 in 10.0 mi Calm Calm - N/A   Clear
7:55 AM 57.7 °F 51.8 °F 81% 30.14 in 10.0 mi Calm Calm - N/A   Clear
8:55 AM 62.1 °F 52.2 °F 70% 30.15 in 9.0 mi Calm Calm - N/A   Clear
9:55 AM 65.8 °F 55.2 °F 69% 30.15 in 10.0 mi Variable 4.6 mph - N/A   Clear
10:55 AM 70.3 °F 54.3 °F 57% 30.14 in 10.0 mi West 8.1 mph - N/A   Clear
11:55 AM 73.4 °F 52.2 °F 47% 30.13 in 10.0 mi Variable 6.9 mph - N/A   Clear
12:55 PM 74.1 °F 51.6 °F 45% 30.12 in 10.0 mi West 9.2 mph - N/A   Partly Cloudy
1:55 PM 74.1 °F 50.5 °F 43% 30.10 in 10.0 mi WSW 5.8 mph 18.4 mph N/A   Clear
2:55 PM 75.2 °F 51.1 °F 43% 30.09 in 10.0 mi West 10.4 mph - N/A   Partly Cloudy
3:55 PM 72.1 °F 50.0 °F 46% 30.07 in 10.0 mi West 9.2 mph - N/A   Partly Cloudy
4:55 PM 73.0 °F 51.3 °F 46% 30.07 in 10.0 mi WSW 9.2 mph - N/A   Clear
5:55 PM 71.6 °F 52.0 °F 50% 30.06 in 10.0 mi WSW 5.8 mph - N/A   Clear
6:55 PM 69.6 °F 53.2 °F 56% 30.07 in 10.0 mi Calm Calm - N/A   Scattered Clouds
7:55 PM 66.9 °F 51.6 °F 58% 30.08 in 10.0 mi Calm Calm - N/A   Clear
8:55 PM 66.0 °F 51.4 °F 59% 30.10 in 10.0 mi Calm Calm - N/A   Clear
9:55 PM 61.9 °F 55.8 °F 80% 30.10 in 10.0 mi South 3.5 mph - N/A   Clear
10:55 PM 59.4 °F 52.7 °F 79% 30.10 in 10.0 mi South 4.6 mph - N/A   Clear
11:55 PM 57.9 °F 52.5 °F 82% 30.10 in 10.0 mi Calm Calm - N/A   Clear